This demonstration page uses our WeatherBlox Daily Observations layout. Learn more.

Left ArrowRight Arrow

39.51506, -84.39828

Hourly Observations for June 17, 2018

Temp ( °F °C ) Dew Point ( °F °C ) Humidity (%) Winds ( mph kmh ) Pressure ( in mb ) Visibility ( mi km ) Precip ( " mm )
12:15 am 00:15 Clear with Mist and Fog 71 21.4 70 21 98 98 Calm 30.03 1017 3 4 0.00 0.00
12:35 am 00:35 Clear with Mist and Fog 70 21.2 70 20.9 98 98 Calm 30.03 1017 3 5 0.00 0.00
12:55 am 00:55 Clear with Mist and Fog 70 21.1 69 20.8 98 98 Calm 30.03 1017 4 6 0.00 0.00
1:15 am 01:15 Clear with Mist and Fog 70 21 70 21 100 100 Calm 30.03 1017 4 6 0.00 0.00
1:35 am 01:35 Clear with Mist and Fog 70 20.9 69 20.7 99 99 Calm 30.03 1017 3 5 0.00 0.00
1:55 am 01:55 Clear with Mist and Fog 69 20.6 69 20.4 99 99 Calm 30.03 1017 4 6 0.00 0.00
2:15 am 02:15 Clear with Mist and Fog 69 20.6 69 20.4 99 99 Calm 30.03 1017 4 6 0.00 0.00
2:35 am 02:35 Clear with Mist and Fog 69 20.7 69 20.5 99 99 Calm 30.00 1016 4 6 0.00 0.00
2:55 am 02:55 Clear with Mist and Fog 69 20.3 68 20.1 99 99 Calm 30.00 1016 3 5 0.00 0.00
3:15 am 03:15 Clear with Mist and Fog 69 20.5 69 20.3 99 99 Calm 30.00 1016 3 4 0.00 0.00
3:35 am 03:35 Mostly Cloudy with Mist and Fog 69 20.3 68 20.2 99 99 Calm 30.00 1016 2 3 0.00 0.00
3:55 am 03:55 Clear with Mist and Fog 69 20.3 68 20.1 99 99 Calm 30.00 1016 2 3 0.00 0.00
4:15 am 04:15 Clear with Mist and Fog 69 20.4 68 20.2 99 99 Calm 30.00 1016 4 6 0.00 0.00
4:35 am 04:35 Clear with Mist and Fog 68 19.9 68 19.8 99 99 N 5 7 30.03 1017 4 6 0.00 0.00
4:55 am 04:55 Clear with Mist and Fog 68 20.2 68 20 99 99 Calm 30.03 1017 5 8 0.00 0.00
5:15 am 05:15 Clear with Mist and Fog 68 20.1 68 19.8 98 98 Calm 30.06 1018 5 8 0.00 0.00
5:35 am 05:35 Clear with Mist and Fog 67 19.7 67 19.4 98 98 Calm 30.06 1018 5 8 0.00 0.00
5:55 am 05:55 Mostly Cloudy with Mist and Fog 68 20.1 68 19.8 98 98 Calm 30.06 1018 2 3 0.00 0.00
6:15 am 06:15 Sunny with Mist and Fog 68 20 68 19.8 99 99 NE 3 6 30.06 1018 2 3 0.00 0.00
6:35 am 06:35 Sunny with Mist and Fog 68 19.9 67 19.7 99 99 Calm 30.06 1018 3 4 0.00 0.00
6:55 am 06:55 Mostly Cloudy with Mist and Fog 68 19.8 67 19.7 99 99 WNW 3 6 30.06 1018 2 3 0.00 0.00
7:15 am 07:15 Sunny with Mist and Fog 70 20.9 69 20.8 99 99 Calm 30.06 1018 2 3 0.00 0.00
7:35 am 07:35 Sunny with Mist and Fog 71 21.7 71 21.4 98 98 Calm 30.06 1018 4 6 0.00 0.00
7:55 am 07:55 Sunny with Mist and Fog 72 22.3 71 21.6 96 96 Calm 30.09 1019 5 8 0.00 0.00
8:15 am 08:15 Sunny with Mist and Fog 74 23.2 71 21.8 92 92 Calm 30.09 1019 7 11 0.00 0.00
8:35 am 08:35 Sunny 76 24.5 72 22.4 88 88 Calm 30.09 1019 7 11 0.00 0.00
8:55 am 08:55 Sunny 78 25.5 73 22.5 84 84 SW 3 6 30.09 1019 10 16 0.00 0.00
9:15 am 09:15 Sunny 79 26.1 72 22.3 80 80 Calm 30.09 1019 10 16 0.00 0.00
9:35 am 09:35 Sunny 80 26.9 73 22.5 77 77 Calm 30.09 1019 10 16 0.00 0.00
9:50 am 09:50 Sunny 82 27.5 74 23.2 77 77 Calm 30.09 1019 10 16 0.00 0.00
10:15 am 10:15 Sunny 84 28.7 73 23 71 71 S 5 7 30.09 1019 10 16 0.00 0.00
10:35 am 10:35 Sunny 85 29.2 74 23.5 71 71 Calm 30.06 1018 10 16 0.00 0.00
10:55 am 10:55 Sunny 85 29.7 74 23.5 69 69 Calm 30.06 1018 10 16 0.00 0.00
11:15 am 11:15 Sunny 87 30.3 74 23.5 67 67 SSW 3 6 30.06 1018 10 16 0.00 0.00
11:35 am 11:35 Sunny 87 30.8 75 23.7 66 66 S 3 6 30.06 1018 10 16 0.00 0.00
11:55 am 11:55 Partly Cloudy 89 31.6 76 24.3 65 65 SSW 6 9 30.06 1018 10 16 0.00 0.00
12:15 pm 12:15 Partly Cloudy 89 31.6 75 23.9 64 64 SW 6 9 30.06 1018 10 16 0.00 0.00
12:35 pm 12:35 Mostly Cloudy 89 31.8 74 23.4 61 61 SSW 5 7 30.06 1018 10 16 0.00 0.00
12:55 pm 12:55 Partly Cloudy 89 31.8 72 22.3 57 57 SW 3 6 30.06 1018 10 16 0.00 0.00
1:15 pm 13:15 Partly Cloudy 90 32.2 70 21.3 53 53 S 3 6 30.03 1017 10 16 0.00 0.00
1:35 pm 13:35 Partly Cloudy 90 32.4 72 22.3 55 55 Calm 30.03 1017 10 16 0.00 0.00
1:55 pm 13:55 Partly Cloudy 91 32.5 73 22.8 57 57 Calm 30.03 1017 10 16 0.00 0.00
2:15 pm 14:15 Sunny 91 32.9 71 21.9 52 52 Calm 30.03 1017 10 16 0.00 0.00
2:35 pm 14:35 Sunny 91 32.9 72 22.3 54 54 Calm 30.03 1017 10 16 0.00 0.00
2:55 pm 14:55 Sunny 92 33.6 71 21.8 50 50 SW 8 13 30.03 1017 10 16 0.00 0.00
3:15 pm 15:15 Sunny 91 32.7 74 23.1 57 57 SW 6 9 30.03 1017 10 16 0.00 0.00
3:35 pm 15:35 Sunny 92 33.4 72 22 51 51 S 6 9 30.03 1017 10 16 0.00 0.00
3:55 pm 15:55 Sunny 91 32.9 70 21.3 50 50 WSW 6 9 30.03 1017 10 16 0.00 0.00
4:15 pm 16:15 Sunny 92 33.6 70 21 48 48 W 7 11 30.00 1016 10 16 0.00 0.00
4:35 pm 16:35 Partly Cloudy 92 33.6 71 21.8 50 50 W 7 11 30.00 1016 10 16 0.00 0.00
4:55 pm 16:55 Sunny 93 33.9 71 21.4 48 48 W 10 17 30.00 1016 10 16 0.00 0.00
5:15 pm 17:15 Sunny 92 33.5 69 20.3 46 46 WSW 8 13 30.00 1016 10 16 0.00 0.00
5:35 pm 17:35 Sunny 92 33.4 69 20.6 47 47 WSW 9 15 30.00 1016 10 16 0.00 0.00
5:55 pm 17:55 Sunny 92 33.4 69 20.7 47 47 W 7 11 30.00 1016 10 16 0.00 0.00
6:15 pm 18:15 Sunny 92 33.2 70 21.1 49 49 W 8 13 30.00 1016 10 16 0.00 0.00
6:35 pm 18:35 Sunny 91 33 70 21.1 50 50 WSW 7 11 30.00 1016 10 16 0.00 0.00
6:55 pm 18:55 Sunny 91 32.6 71 21.5 52 52 WSW 8 13 30.00 1016 10 16 0.00 0.00
7:15 pm 19:15 Sunny 90 32.2 71 21.7 54 54 WSW 6 9 30.00 1016 10 16 0.00 0.00
7:35 pm 19:35 Sunny 89 31.8 72 22 56 56 WSW 6 9 30.00 1016 10 16 0.00 0.00
7:55 pm 19:55 Sunny 88 31.1 72 22.3 59 59 SW 6 9 29.97 1015 10 16 0.00 0.00
8:15 pm 20:15 Sunny 85 29.6 75 23.8 71 71 WSW 5 7 29.97 1015 10 16 0.00 0.00
8:35 pm 20:35 Sunny 84 29 75 23.8 74 74 WSW 3 6 29.97 1015 10 16 0.00 0.00
8:55 pm 20:55 Sunny 83 28.1 75 24 78 78 Calm 30.00 1016 10 16 0.00 0.00
9:15 pm 21:15 Clear 80 26.8 75 24.1 85 85 Calm 30.00 1016 10 16 0.00 0.00
9:35 pm 21:35 Clear 79 25.9 75 23.7 88 88 Calm 30.03 1017 10 16 0.00 0.00
9:55 pm 21:55 Clear 77 25.1 74 23.5 91 91 Calm 30.03 1017 10 16 0.00 0.00
10:15 pm 22:15 Clear 77 25.2 74 23.3 89 89 Calm 30.03 1017 10 16 0.00 0.00
10:35 pm 22:35 Clear 76 24.3 73 22.6 90 90 Calm 30.03 1017 10 16 0.00 0.00
10:55 pm 22:55 Clear 75 24.1 73 22.8 92 92 Calm 30.03 1017 10 16 0.00 0.00
11:15 pm 23:15 Clear 74 23.6 73 22.7 95 95 Calm 30.03 1017 10 16 0.00 0.00
11:35 pm 23:35 Clear 75 23.8 73 22.8 94 94 Calm 30.03 1017 10 16 0.00 0.00
11:55 pm 23:55 Clear 74 23.4 72 22.4 94 94 Calm 30.03 1017 7 11 0.00 0.00

Powered by AerisWeather